You are listening to:
LHBP Info - Budapest, Hungary

LHBP 240030Z 00000KT CAVOK 15/13 Q1015 NOSIG

If stream doesn't start automatically press the play button
If stream stops then reload player then press play